| time (UTC) | temp C | wind direction | speed KPH | gust KPH | rain 1hr cm | rain 24hr cm | rain mn cm | humidity % | barometer mb |
| 20260504081504 | 6 | 347 | 4.8 | 4.8 | 0.00 | 0.00 | 0.00 | 59 | 1015.9 |
| 20260504081004 | 6 | 341 | 4.8 | 4.8 | 0.00 | 0.00 | 0.00 | 58 | 1015.8 |
| 20260504050505 | 10 | 342 | 19.3 | 32.2 | 0.00 | 0.00 | 0.00 | 51 | 1015.2 |
| 20260504050004 | 10 | 347 | 14.5 | 25.7 | 0.00 | 0.00 | 0.00 | 50 | 1015.0 |
| 20260504045505 | 10 | 7 | 3.2 | 19.3 | 0.00 | 0.00 | 0.00 | 50 | 1015.0 |
| 20260504045004 | 10 | 31 | 11.3 | 25.7 | 0.00 | 0.00 | 0.00 | 49 | 1014.8 |
| 20260504044505 | 10 | 343 | 11.3 | 27.4 | 0.00 | 0.00 | 0.00 | 49 | 1014.8 |
| 20260504044005 | 10 | 347 | 14.5 | 27.4 | 0.00 | 0.00 | 0.00 | 49 | 1014.7 |
| 20260504043504 | 10 | 349 | 16.1 | 33.8 | 0.00 | 0.00 | 0.00 | 49 | 1014.6 |
| 20260504042505 | 10 | 3 | 4.8 | 14.5 | 0.00 | 0.00 | 0.00 | 47 | 1014.5 |
| 20260504042004 | 10 | 48 | 4.8 | 9.7 | 0.00 | 0.00 | 0.00 | 46 | 1014.3 |
| 20260504041505 | 10 | 353 | 8.0 | 16.1 | 0.00 | 0.00 | 0.00 | 46 | 1014.2 |
| 20260504040504 | 10 | 42 | 3.2 | 9.7 | 0.00 | 0.00 | 0.00 | 44 | 1014.1 |
| 20260504040004 | 10 | 12 | 3.2 | 11.3 | 0.00 | 0.00 | 0.00 | 44 | 1014.0 |
| 20260504035505 | 10 | 15 | 1.6 | 3.2 | 0.00 | 0.00 | 0.00 | 44 | 1013.8 |
| 20260504035004 | 10 | 348 | 3.2 | 9.7 | 0.00 | 0.00 | 0.00 | 43 | 1013.7 |
| 20260504034005 | 11 | 61 | 1.6 | 4.8 | 0.00 | 0.00 | 0.00 | 42 | 1013.4 |
| 20260504033504 | 11 | 65 | 3.2 | 8.0 | 0.00 | 0.00 | 0.00 | 42 | 1013.3 |
| 20260504033004 | 11 | 54 | 4.8 | 16.1 | 0.00 | 0.00 | 0.00 | 41 | 1013.1 |
| 20260504032505 | 11 | 69 | 9.7 | 14.5 | 0.00 | 0.00 | 0.00 | 41 | 1013.0 |
| 20260504031505 | 11 | 52 | 8.0 | 20.9 | 0.00 | 0.00 | 0.00 | 40 | 1012.8 |
| 20260504031004 | 11 | 63 | 6.4 | 14.5 | 0.00 | 0.00 | 0.00 | 40 | 1012.7 |
| 20260504030504 | 11 | 62 | 6.4 | 16.1 | 0.00 | 0.00 | 0.00 | 40 | 1012.5 |
| 20260504025504 | 12 | 51 | 4.8 | 8.0 | 0.00 | 0.00 | 0.00 | 40 | 1012.4 |
| 20260504025005 | 12 | 68 | 4.8 | 9.7 | 0.00 | 0.00 | 0.00 | 40 | 1012.2 |
| 20260504024504 | 12 | 75 | 3.2 | 9.7 | 0.00 | 0.00 | 0.00 | 40 | 1012.0 |
| 20260504024004 | 12 | 60 | 9.7 | 14.5 | 0.00 | 0.00 | 0.00 | 39 | 1011.9 |
| 20260504023505 | 12 | 61 | 8.0 | 14.5 | 0.00 | 0.00 | 0.00 | 40 | 1011.8 |
| 20260504023004 | 12 | 56 | 3.2 | 9.7 | 0.00 | 0.00 | 0.00 | 40 | 1011.8 |
| 20260504022504 | 12 | 65 | 1.6 | 8.0 | 0.00 | 0.00 | 0.00 | 39 | 1011.6 |
| 20260504022005 | 13 | 60 | 3.2 | 4.8 | 0.00 | 0.00 | 0.00 | 38 | 1011.6 |
| 20260504021504 | 13 | 53 | 4.8 | 11.3 | 0.00 | 0.00 | 0.00 | 38 | 1011.5 |
| 20260504021004 | 13 | 44 | 8.0 | 12.9 | 0.00 | 0.00 | 0.00 | 38 | 1011.6 |
| 20260504020504 | 13 | 51 | 4.8 | 12.9 | 0.00 | 0.00 | 0.00 | 38 | 1011.5 |
| 20260504015504 | 13 | 64 | 4.8 | 11.3 | 0.00 | 0.00 | 0.00 | 37 | 1011.2 |
| 20260504015004 | 13 | 65 | 4.8 | 19.3 | 0.00 | 0.00 | 0.00 | 38 | 1011.0 |
| 20260504014504 | 14 | 50 | 11.3 | 29.0 | 0.00 | 0.00 | 0.00 | 36 | 1010.9 |
| 20260504014004 | 14 | 52 | 14.5 | 25.7 | 0.00 | 0.00 | 0.00 | 36 | 1010.7 |
| 20260504013504 | 15 | 68 | 12.9 | 22.5 | 0.00 | 0.00 | 0.00 | 36 | 1010.7 |
| 20260504013004 | 15 | 57 | 8.0 | 19.3 | 0.00 | 0.00 | 0.00 | 36 | 1010.5 |
| 20260504012505 | 15 | 54 | 9.7 | 19.3 | 0.00 | 0.00 | 0.00 | 36 | 1010.4 |
| 20260504012004 | 16 | 59 | 8.0 | 19.3 | 0.00 | 0.00 | 0.00 | 35 | 1010.3 |
| 20260504011505 | 16 | 60 | 8.0 | 16.1 | 0.00 | 0.00 | 0.00 | 35 | 1010.3 |
| 20260504011004 | 16 | 57 | 12.9 | 24.1 | 0.00 | 0.00 | 0.00 | 35 | 1010.3 |
| 20260504010504 | 16 | 61 | 4.8 | 9.7 | 0.00 | 0.00 | 0.00 | 36 | 1010.2 |
| 20260504010005 | 16 | 47 | 8.0 | 14.5 | 0.00 | 0.00 | 0.00 | 35 | 1010.1 |
| 20260504005504 | 17 | 66 | 6.4 | 22.5 | 0.00 | 0.00 | 0.00 | 35 | 1010.1 |
| 20260504005005 | 17 | 60 | 4.8 | 12.9 | 0.00 | 0.00 | 0.00 | 34 | 1010.0 |
| 20260504004504 | 17 | 57 | 4.8 | 12.9 | 0.00 | 0.00 | 0.00 | 34 | 1009.9 |
| 20260504003504 | 18 | 59 | 3.2 | 16.1 | 0.00 | 0.00 | 0.00 | 34 | 1009.8 |
| 20260504003004 | 18 | 75 | 3.2 | 12.9 | 0.00 | 0.00 | 0.00 | 35 | 1009.8 |
| 20260504002004 | 18 | 341 | 22.5 | 35.4 | 0.00 | 0.00 | 0.00 | 33 | 1009.6 |
| 20260504001504 | 18 | 353 | 14.5 | 33.8 | 0.00 | 0.00 | 0.00 | 34 | 1009.6 |
| 20260504001004 | 18 | 347 | 29.0 | 45.1 | 0.00 | 0.00 | 0.00 | 33 | 1009.5 |
| 20260504000504 | 18 | 333 | 17.7 | 29.0 | 0.00 | 0.00 | 0.00 | 34 | 1009.5 |
| 20260504000004 | 18 | 345 | 19.3 | 35.4 | 0.00 | 0.00 | 0.00 | 32 | 1009.5 |
| 20260503235504 | 18 | 353 | 11.3 | 27.4 | 0.00 | 0.00 | 0.00 | 33 | 1009.5 |
| 20260503235004 | 19 | 346 | 4.8 | 27.4 | 0.00 | 0.00 | 0.00 | 32 | 1009.5 |
| 20260503234005 | 19 | 10 | 3.2 | 14.5 | 0.00 | 0.00 | 0.00 | 32 | 1009.5 |
| 20260503233504 | 18 | 1 | 8.0 | 32.2 | 0.00 | 0.00 | 0.00 | 33 | 1009.5 |
| 20260503233004 | 18 | 352 | 22.5 | 38.6 | 0.00 | 0.00 | 0.00 | 32 | 1009.5 |
| 20260503232505 | 18 | 347 | 14.5 | 32.2 | 0.00 | 0.00 | 0.00 | 31 | 1009.5 |
| 20260503232004 | 18 | 4 | 8.0 | 29.0 | 0.00 | 0.00 | 0.00 | 32 | 1009.4 |
| 20260503231505 | 19 | 19 | 3.2 | 12.9 | 0.00 | 0.00 | 0.00 | 32 | 1009.5 |
| 20260503231004 | 19 | 20 | 4.8 | 11.3 | 0.00 | 0.00 | 0.00 | 31 | 1009.4 |
| 20260503230504 | 20 | 5 | 4.8 | 22.5 | 0.00 | 0.00 | 0.00 | 31 | 1009.4 |
| 20260503225505 | 20 | 357 | 4.8 | 20.9 | 0.00 | 0.00 | 0.00 | 30 | 1009.4 |
| 20260503225004 | 20 | 33 | 4.8 | 25.7 | 0.00 | 0.00 | 0.00 | 31 | 1009.3 |
| 20260503224504 | 20 | 346 | 8.0 | 27.4 | 0.00 | 0.00 | 0.00 | 29 | 1009.4 |
| 20260503224004 | 21 | 359 | 4.8 | 24.1 | 0.00 | 0.00 | 0.00 | 30 | 1009.3 |
| 20260503222504 | 21 | 54 | 4.8 | 19.3 | 0.00 | 0.00 | 0.00 | 31 | 1009.3 |
| 20260503222005 | 20 | 13 | 6.4 | 25.7 | 0.00 | 0.00 | 0.00 | 31 | 1009.3 |
| 20260503221504 | 20 | 57 | 16.1 | 27.4 | 0.00 | 0.00 | 0.00 | 31 | 1009.2 |
| 20260503221004 | 21 | 67 | 11.3 | 27.4 | 0.00 | 0.00 | 0.00 | 29 | 1009.2 |
| 20260503220504 | 21 | 60 | 11.3 | 22.5 | 0.00 | 0.00 | 0.00 | 28 | 1009.1 |
| 20260503220004 | 21 | 36 | 11.3 | 33.8 | 0.00 | 0.00 | 0.00 | 26 | 1009.1 |
| 20260503215505 | 21 | 353 | 12.9 | 24.1 | 0.00 | 0.00 | 0.00 | 25 | 1009.1 |
| 20260503214504 | 21 | 45 | 3.2 | 22.5 | 0.00 | 0.00 | 0.00 | 26 | 1009.1 |
| 20260503214005 | 21 | 337 | 20.9 | 29.0 | 0.00 | 0.00 | 0.00 | 25 | 1009.2 |
| 20260503213504 | 21 | 331 | 16.1 | 22.5 | 0.00 | 0.00 | 0.00 | 24 | 1009.2 |
| 20260503213005 | 21 | 5 | 8.0 | 24.1 | 0.00 | 0.00 | 0.00 | 29 | 1009.3 |
| 20260503212504 | 21 | 340 | 20.9 | 32.2 | 0.00 | 0.00 | 0.00 | 25 | 1009.3 |
| 20260503212005 | 21 | 333 | 11.3 | 24.1 | 0.00 | 0.00 | 0.00 | 24 | 1009.3 |
| 20260503211505 | 21 | 339 | 11.3 | 20.9 | 0.00 | 0.00 | 0.00 | 25 | 1009.2 |
| 20260503211004 | 20 | 332 | 8.0 | 14.5 | 0.00 | 0.00 | 0.00 | 26 | 1009.4 |
| 20260503210504 | 21 | 342 | 9.7 | 19.3 | 0.00 | 0.00 | 0.00 | 26 | 1009.4 |
| 20260503210005 | 21 | 11 | 9.7 | 22.5 | 0.00 | 0.00 | 0.00 | 27 | 1009.5 |
| 20260503205504 | 21 | 332 | 8.0 | 25.7 | 0.00 | 0.00 | 0.00 | 26 | 1009.5 |
| 20260503205004 | 21 | 46 | 4.8 | 14.5 | 0.00 | 0.00 | 0.00 | 25 | 1009.5 |
| 20260503204504 | 21 | 25 | 6.4 | 22.5 | 0.00 | 0.00 | 0.00 | 26 | 1009.5 |
| 20260503204004 | 21 | 8 | 11.3 | 19.3 | 0.00 | 0.00 | 0.00 | 25 | 1009.6 |
| 20260503203504 | 20 | 356 | 8.0 | 20.9 | 0.00 | 0.00 | 0.00 | 26 | 1009.6 |
| 20260503203004 | 21 | 1 | 14.5 | 25.7 | 0.00 | 0.00 | 0.00 | 25 | 1009.5 |
| 20260503202504 | 21 | 328 | 6.4 | 14.5 | 0.00 | 0.00 | 0.00 | 25 | 1009.5 |
| 20260503202004 | 21 | 345 | 8.0 | 27.4 | 0.00 | 0.00 | 0.00 | 26 | 1009.6 |
| 20260503201504 | 20 | 338 | 14.5 | 29.0 | 0.00 | 0.00 | 0.00 | 27 | 1009.7 |
| 20260503201004 | 20 | 353 | 12.9 | 27.4 | 0.00 | 0.00 | 0.00 | 27 | 1009.7 |
| 20260503200004 | 20 | 337 | 9.7 | 20.9 | 0.00 | 0.00 | 0.00 | 28 | 1009.8 |
| 20260503195504 | 20 | 59 | 8.0 | 16.1 | 0.00 | 0.00 | 0.00 | 28 | 1009.8 |
| 20260503195005 | 20 | 2 | 6.4 | 19.3 | 0.00 | 0.00 | 0.00 | 28 | 1009.9 |
| 20260503193505 | 19 | 65 | 8.0 | 14.5 | 0.00 | 0.00 | 0.00 | 30 | 1010.0 |
| 20260503193004 | 19 | 66 | 4.8 | 14.5 | 0.00 | 0.00 | 0.00 | 28 | 1010.2 |
| 20260503192504 | 19 | 70 | 4.8 | 22.5 | 0.00 | 0.00 | 0.00 | 26 | 1010.3 |
| 20260503191505 | 20 | 335 | 4.8 | 9.7 | 0.00 | 0.00 | 0.00 | 26 | 1010.4 |
| 20260503191005 | 20 | 7 | 4.8 | 14.5 | 0.00 | 0.00 | 0.00 | 27 | 1010.5 |
| 20260503190504 | 19 | 313 | 9.7 | 22.5 | 0.00 | 0.00 | 0.00 | 25 | 1010.4 |
| 20260503190004 | 19 | 337 | 11.3 | 19.3 | 0.00 | 0.00 | 0.00 | 26 | 1010.6 |
| 20260503185004 | 19 | 354 | 12.9 | 27.4 | 0.00 | 0.00 | 0.00 | 27 | 1010.7 |
| 20260503184505 | 18 | 320 | 12.9 | 24.1 | 0.00 | 0.00 | 0.00 | 26 | 1010.7 |
| 20260503184004 | 18 | 32 | 9.7 | 22.5 | 0.00 | 0.00 | 0.00 | 27 | 1010.8 |
| 20260503183504 | 18 | 319 | 14.5 | 22.5 | 0.00 | 0.00 | 0.00 | 28 | 1010.8 |
| 20260503183004 | 18 | 31 | 3.2 | 16.1 | 0.00 | 0.00 | 0.00 | 29 | 1011.0 |
| 20260503182505 | 18 | 355 | 9.7 | 27.4 | 0.00 | 0.00 | 0.00 | 28 | 1011.1 |
| 20260503182005 | 18 | 18 | 8.0 | 16.1 | 0.00 | 0.00 | 0.00 | 28 | 1011.0 |
| 20260503181505 | 18 | 320 | 4.8 | 16.1 | 0.00 | 0.00 | 0.00 | 28 | 1011.1 |
| 20260503180504 | 18 | 39 | 12.9 | 29.0 | 0.00 | 0.00 | 0.00 | 29 | 1011.3 |
| 20260503180005 | 18 | 40 | 8.0 | 25.7 | 0.00 | 0.00 | 0.00 | 30 | 1011.3 |
| 20260503175504 | 18 | 342 | 11.3 | 32.2 | 0.00 | 0.00 | 0.00 | 28 | 1011.3 |
| 20260503175004 | 18 | 352 | 4.8 | 24.1 | 0.00 | 0.00 | 0.00 | 29 | 1011.4 |
| 20260503174504 | 18 | 358 | 4.8 | 16.1 | 0.00 | 0.00 | 0.00 | 30 | 1011.5 |
| 20260503174004 | 18 | 338 | 9.7 | 33.8 | 0.00 | 0.00 | 0.00 | 29 | 1011.5 |
| 20260503173504 | 18 | 323 | 25.7 | 33.8 | 0.00 | 0.00 | 0.00 | 26 | 1011.5 |
| 20260503172504 | 18 | 337 | 22.5 | 37.0 | 0.00 | 0.00 | 0.00 | 25 | 1011.7 |
| 20260503172004 | 18 | 322 | 16.1 | 25.7 | 0.00 | 0.00 | 0.00 | 26 | 1011.8 |
| 20260503171504 | 17 | 335 | 29.0 | 35.4 | 0.00 | 0.00 | 0.00 | 25 | 1011.9 |
| 20260503170504 | 17 | 338 | 19.3 | 29.0 | 0.00 | 0.00 | 0.00 | 28 | 1012.0 |
| 20260503151004 | 14 | 270 | 19.3 | 24.1 | 0.00 | 0.00 | 0.00 | 34 | 1012.3 |
| 20260503150503 | 13 | 269 | 20.9 | 25.7 | 0.00 | 0.00 | 0.00 | 34 | 1012.5 |
| 20260503131004 | 8 | 295 | 1.6 | 4.8 | 0.00 | 0.00 | 0.00 | 42 | 1012.5 |
| 20260503130504 | 8 | 235 | 1.6 | 4.8 | 0.00 | 0.00 | 0.00 | 42 | 1012.6 |
| 20260503110504 | 9 | 301 | 9.7 | 12.9 | 0.00 | 0.00 | 0.00 | 36 | 1013.2 |
| 20260503090504 | 9 | 289 | 9.7 | 12.9 | 0.00 | 0.00 | 0.00 | 36 | 1013.2 |